Time,TemperatureF,DewpointF,PressureIn,WindDirection,WindDirectionDegrees,WindSpeedMPH,WindSpeedGustMPH,Humidity,HourlyPrecipIn,Conditions,Clouds,dailyrainin,SolarRadiationWatts/m^2,SoftwareType,DateUTC
2013-11-04 00:02:00,57.0,45.0,-100.00,West,275,2.0,10.0,63,0.00,,,0.01,0.000000,,2013-11-04 06:02:00,
2013-11-04 00:42:00,55.0,44.0,-100.00,SE,136,2.0,6.0,66,0.00,,,0.01,0.000000,,2013-11-04 06:42:00,
2013-11-04 00:52:00,55.0,44.0,-100.00,SE,136,2.0,6.0,66,0.00,,,0.01,0.000000,,2013-11-04 06:52:00,
2013-11-04 01:01:00,55.0,44.0,-100.00,SE,136,2.0,6.0,66,0.00,,,0.01,0.000000,,2013-11-04 07:01:00,
2013-11-04 01:43:00,55.0,43.0,-100.00,East,93,6.0,8.0,65,0.00,,,0.01,0.000000,,2013-11-04 07:43:00,
2013-11-04 01:52:00,55.0,43.0,-100.00,East,93,6.0,8.0,65,0.00,,,0.01,0.000000,,2013-11-04 07:52:00,
2013-11-04 02:02:00,55.0,43.0,-100.00,East,93,6.0,8.0,65,0.00,,,0.01,0.000000,,2013-11-04 08:02:00,
2013-11-04 02:42:00,56.0,45.0,-100.00,NNW,329,3.0,7.0,67,0.00,,,0.01,0.000000,,2013-11-04 08:42:00,
2013-11-04 02:52:00,56.0,45.0,-100.00,NNW,329,3.0,7.0,67,0.00,,,0.01,0.000000,,2013-11-04 08:52:00,
2013-11-04 03:02:00,56.0,45.0,-100.00,NNW,329,3.0,7.0,67,0.00,,,0.01,0.000000,,2013-11-04 09:02:00,
2013-11-04 03:43:00,56.0,44.0,-100.00,East,89,3.0,11.0,63,0.00,,,0.01,0.000000,,2013-11-04 09:43:00,
2013-11-04 03:53:00,56.0,44.0,-100.00,East,89,3.0,11.0,63,0.00,,,0.01,0.000000,,2013-11-04 09:53:00,
2013-11-04 04:03:00,56.0,44.0,-100.00,East,89,3.0,11.0,63,0.00,,,0.01,0.000000,,2013-11-04 10:03:00,
2013-11-04 04:42:00,55.0,45.0,-100.00,SE,126,3.0,6.0,68,0.00,,,0.01,0.000000,,2013-11-04 10:42:00,
2013-11-04 04:52:00,55.0,45.0,-100.00,SE,126,3.0,6.0,68,0.00,,,0.01,0.000000,,2013-11-04 10:52:00,
2013-11-04 05:02:00,55.0,45.0,-100.00,SE,126,3.0,6.0,68,0.00,,,0.01,0.000000,,2013-11-04 11:02:00,
2013-11-04 05:43:00,56.0,47.0,-100.00,SE,128,6.0,11.0,71,0.00,,,0.01,0.000000,,2013-11-04 11:43:00,
2013-11-04 05:52:00,56.0,47.0,-100.00,SE,128,6.0,11.0,71,0.00,,,0.01,0.000000,,2013-11-04 11:52:00,
2013-11-04 06:02:00,56.0,47.0,-100.00,SE,128,6.0,11.0,71,0.00,,,0.01,0.000000,,2013-11-04 12:02:00,
2013-11-04 06:42:00,56.0,48.0,-100.00,ENE,69,1.0,7.0,75,0.00,,,0.01,0.000000,,2013-11-04 12:42:00,
2013-11-04 06:52:00,56.0,48.0,-100.00,ENE,69,1.0,7.0,75,0.00,,,0.01,0.000000,,2013-11-04 12:52:00,
2013-11-04 07:01:00,56.0,48.0,-100.00,ENE,69,1.0,7.0,75,0.00,,,0.01,0.000000,,2013-11-04 13:01:00,
2013-11-04 07:42:00,56.0,50.0,-100.00,East,82,4.0,7.0,80,0.00,,,0.01,0.000000,,2013-11-04 13:42:00,
2013-11-04 07:52:00,56.0,50.0,-100.00,East,82,4.0,7.0,80,0.00,,,0.01,0.000000,,2013-11-04 13:52:00,
2013-11-04 08:02:00,56.0,50.0,-100.00,East,82,4.0,7.0,80,0.00,,,0.01,0.000000,,2013-11-04 14:02:00,
2013-11-04 08:42:00,57.0,52.0,-100.00,SSE,161,1.0,11.0,82,0.00,,,-99.99,28.000000,,2013-11-04 14:42:00,
2013-11-04 08:52:00,57.0,52.0,-100.00,SSE,161,1.0,11.0,82,0.00,,,-99.99,28.000000,,2013-11-04 14:52:00,
2013-11-04 09:02:00,57.0,52.0,-100.00,SSE,161,1.0,11.0,82,0.00,,,-99.99,28.000000,,2013-11-04 15:02:00,
2013-11-04 09:42:00,60.0,53.0,-100.00,SSE,151,6.0,9.0,79,0.00,,,0.01,74.000000,,2013-11-04 15:42:00,
2013-11-04 09:52:00,60.0,53.0,-100.00,SSE,151,6.0,9.0,79,0.00,,,0.01,74.000000,,2013-11-04 15:52:00,
2013-11-04 10:03:00,60.0,53.0,-100.00,SSE,151,6.0,9.0,79,0.00,,,0.01,74.000000,,2013-11-04 16:03:00,
2013-11-04 10:43:00,61.0,53.0,-100.00,SSE,162,6.0,9.0,75,0.00,,,-99.99,100.000000,,2013-11-04 16:43:00,
2013-11-04 10:53:00,61.0,53.0,-100.00,SSE,162,6.0,9.0,75,0.00,,,-99.99,100.000000,,2013-11-04 16:53:00,
2013-11-04 11:03:00,61.0,53.0,-100.00,SSE,162,6.0,9.0,75,0.00,,,-99.99,100.000000,,2013-11-04 17:03:00,
2013-11-04 11:42:00,62.0,54.0,-100.00,South,176,6.0,9.0,75,0.00,,,0.01,129.000000,,2013-11-04 17:42:00,
2013-11-04 11:53:00,62.0,54.0,-100.00,South,176,6.0,9.0,75,0.00,,,0.01,129.000000,,2013-11-04 17:53:00,
2013-11-04 12:01:00,62.0,54.0,-100.00,South,176,6.0,9.0,75,0.00,,,0.01,129.000000,,2013-11-04 18:01:00,
2013-11-04 12:42:00,61.0,53.0,-100.00,SSE,166,7.0,13.0,75,0.00,,,0.01,104.000000,,2013-11-04 18:42:00,
2013-11-04 12:52:00,61.0,53.0,-100.00,SSE,166,7.0,13.0,75,0.00,,,0.01,104.000000,,2013-11-04 18:52:00,
2013-11-04 13:01:00,61.0,53.0,-100.00,SSE,166,7.0,13.0,75,0.00,,,0.01,104.000000,,2013-11-04 19:01:00,
2013-11-04 13:42:00,62.0,58.0,-100.00,SE,134,3.0,9.0,86,0.00,,,0.01,187.000000,,2013-11-04 19:42:00,
2013-11-04 13:52:00,62.0,58.0,-100.00,SE,134,3.0,9.0,86,0.00,,,0.01,187.000000,,2013-11-04 19:52:00,
2013-11-04 14:01:00,62.0,58.0,-100.00,SE,134,3.0,9.0,86,0.00,,,0.01,187.000000,,2013-11-04 20:01:00,
2013-11-04 14:42:00,64.0,57.0,-100.00,East,82,5.0,9.0,78,0.00,,,0.01,182.000000,,2013-11-04 20:42:00,
2013-11-04 14:52:00,64.0,57.0,-100.00,East,82,5.0,9.0,78,0.00,,,0.01,182.000000,,2013-11-04 20:52:00,
2013-11-04 15:03:00,64.0,57.0,-100.00,East,82,5.0,9.0,78,0.00,,,0.01,182.000000,,2013-11-04 21:03:00,
2013-11-04 15:45:00,70.0,59.0,-100.00,SSE,162,9.0,14.0,69,0.00,,,0.01,309.000000,,2013-11-04 21:45:00,
2013-11-04 15:54:00,70.0,59.0,-100.00,SSE,162,9.0,14.0,69,0.00,,,0.01,309.000000,,2013-11-04 21:54:00,
2013-11-04 16:04:00,70.0,59.0,-100.00,SSE,162,9.0,14.0,69,0.00,,,0.01,309.000000,,2013-11-04 22:04:00,
2013-11-04 16:43:00,69.0,53.0,-100.00,SE,143,9.0,17.0,56,0.00,,,0.01,284.000000,,2013-11-04 22:43:00,
2013-11-04 16:53:00,69.0,53.0,-100.00,SE,143,9.0,17.0,56,0.00,,,0.01,284.000000,,2013-11-04 22:53:00,
2013-11-04 17:03:00,69.0,53.0,-100.00,SE,143,9.0,17.0,56,0.00,,,0.01,284.000000,,2013-11-04 23:03:00,
2013-11-04 17:43:00,67.0,51.0,-100.00,SSE,150,10.0,19.0,56,0.00,,,0.01,104.000000,,2013-11-04 23:43:00,
2013-11-04 17:53:00,67.0,51.0,-100.00,SSE,150,10.0,19.0,56,0.00,,,0.01,104.000000,,2013-11-04 23:53:00,
2013-11-04 18:02:00,67.0,51.0,-100.00,SSE,150,10.0,19.0,56,0.00,,,0.01,104.000000,,2013-11-05 00:02:00,
2013-11-04 18:42:00,64.0,52.0,-100.00,ESE,110,10.0,15.0,64,0.00,,,0.01,14.000000,,2013-11-05 00:42:00,
2013-11-04 18:52:00,64.0,52.0,-100.00,ESE,110,10.0,15.0,64,0.00,,,0.01,14.000000,,2013-11-05 00:52:00,
2013-11-04 19:02:00,64.0,52.0,-100.00,ESE,110,10.0,15.0,64,0.00,,,0.01,14.000000,,2013-11-05 01:02:00,
2013-11-04 19:42:00,63.0,53.0,-100.00,ESE,115,10.0,18.0,69,0.00,,,0.00,0.000000,,2013-11-05 01:42:00,
2013-11-04 19:52:00,63.0,53.0,-100.00,ESE,115,10.0,18.0,69,0.00,,,0.00,0.000000,,2013-11-05 01:52:00,
2013-11-04 20:02:00,63.0,53.0,-100.00,ESE,115,10.0,18.0,69,0.00,,,0.00,0.000000,,2013-11-05 02:02:00,
2013-11-04 20:42:00,62.0,53.0,-100.00,ESE,120,8.0,13.0,73,0.00,,,0.00,0.000000,,2013-11-05 02:42:00,
2013-11-04 20:52:00,62.0,53.0,-100.00,ESE,120,8.0,13.0,73,0.00,,,0.00,0.000000,,2013-11-05 02:52:00,
2013-11-04 21:02:00,62.0,53.0,-100.00,ESE,120,8.0,13.0,73,0.00,,,0.00,0.000000,,2013-11-05 03:02:00,
2013-11-04 21:44:00,62.0,55.0,-100.00,ESE,122,9.0,13.0,77,0.00,,,0.00,0.000000,,2013-11-05 03:44:00,
2013-11-04 21:54:00,62.0,55.0,-100.00,ESE,122,9.0,13.0,77,0.00,,,0.00,0.000000,,2013-11-05 03:54:00,
2013-11-04 22:03:00,62.0,55.0,-100.00,ESE,122,9.0,13.0,77,0.00,,,0.00,0.000000,,2013-11-05 04:03:00,
2013-11-04 22:43:00,61.0,56.0,-100.00,ESE,123,8.0,13.0,83,0.00,,,0.00,0.000000,,2013-11-05 04:43:00,
2013-11-04 22:53:00,61.0,56.0,-100.00,ESE,123,8.0,13.0,83,0.00,,,0.00,0.000000,,2013-11-05 04:53:00,
2013-11-04 23:03:00,61.0,56.0,-100.00,ESE,123,8.0,13.0,83,0.00,,,0.00,0.000000,,2013-11-05 05:03:00,
2013-11-04 23:44:00,61.0,57.0,-100.00,ESE,119,8.0,13.0,87,0.00,,,0.00,0.000000,,2013-11-05 05:44:00,
2013-11-04 23:54:00,61.0,57.0,-100.00,ESE,119,8.0,13.0,87,0.00,,,0.00,0.000000,,2013-11-05 05:54:00,